Regional Weather Roundup
Issued by NWS Grand Forks, ND

Home | Current Version | Previous Version | Graphics & Text | Print | Product List | Glossary On
Versions: 1 2 3 4 5 6 7 8 9 10 11 12 13 14 15 16 17 18 19 20 21 22 23 24 25 26 27 28 29 30 31 32 33 34 35 36 37 38 39 40 41 42 43 44 45 46 47 48 49 50
000
ASUS43 KFGF 250310
RWRFGF
PRAIRIE TO PINES  WEATHER ROUNDUP
NATIONAL WEATHER SERVICE EASTERN NORTH DAKOTA/GRAND FORKS ND
1000 PM CDT TUE APR 24 2018

 **SATELLITE DATA USED TO AUGMENT SKY COVER AT AUTOMATED STATIONS**
 *****  WEATHER ACROSS EASTERN NORTH DAKOTA  *****

CITY           SKY/WX    TMP DP  RH WIND       PRES   REMARKS
GRAND FORKS    FAIR      36  30  79 CALM      30.33S
GRAND FRKS AFB NOT AVBL
GRAND FRKS NWS   N/A     40  28  63 MISG      30.31S
DEVILS LAKE    FAIR      37  28  70 S6        30.32S
FARGO          FAIR      41  28  60 N5        30.34R
WAHPETON ARPT  FAIR      43  28  56 N12G17    30.33S
$$

 ***** WEATHER ACROSS CENTRAL AND WESTERN NORTH DAKOTA  *****

CITY           SKY/WX    TMP DP  RH WIND       PRES   REMARKS
BISMARCK       FAIR      49  24  37 CALM      30.35S
MINOT          FAIR      47  22  37 SW5       30.28S
JAMESTOWN      FAIR      41  32  70 E3        30.34R
MINOT AFB      NOT AVBL
GARRISON         N/A     43  23  45 CALM      30.31F
WILLISTON      FAIR      51  26  37 SW5       30.28S
DICKINSON      FAIR      43  30  60 SW13      30.33S
HETTINGER      FAIR      37  28  70 CALM      30.39R
$$

 *****  OTHER AIRPORT OBSERVATIONS IN OUR AREA  *****

CITY           SKY/WX    TMP DP  RH WIND       PRES   REMARKS
WALHALLA       FAIR      43  23  45 S5        30.30S
GRAFTON AIRPOR FAIR      41  32  70 SE5       30.34S
VALLEY CITY AR FAIR      43  30  61 CALM      30.37R
CANDO          FAIR      39  28  65 S9        30.32S
CAVALIER APRT    N/A     39  30  70 S3        30.31S
GWINNER          N/A     41  32  70 N7        30.35R
SHEYENNE NWR     N/A     42  30  62 N2        29.95S
ROLLA          FAIR      41  32  70 SW6       30.28S
 ***** THE ABOVE OBSERVATIONS ARE NON NWS ARE NOT QUALITY
       CONTROLLED AND MAY MIS-REPORT RAIN FOR SNOW...
$$

  *****  WEATHER ACROSS NORTHERN MINNESOTA  *****

CITY           SKY/WX    TMP DP  RH WIND       PRES   REMARKS
FLAG ISLAND    FAIR      34  21  60 CALM      30.30S
WARROAD        FAIR      34  27  75 CALM      30.33R
ROSEAU         FAIR      37  30  75 S3        30.32R
HALLOCK        FAIR      39  23  52 SE3       30.32S
THF RVR FALLS  FAIR      40  27  59 NW5       30.34R
BAUDETTE       FAIR      34  25  69 CALM      30.31S
WASKISH        FAIR      32  25  74 CALM      30.32S
CROOKSTON      FAIR      45  27  49 CALM      30.34S
STEPHEN NDAWN    N/A     37  28  70 S3          N/A
GREENBUSH NDAW   N/A     37  30  75 CALM        N/A
$$
  *****  WEATHER ACROSS CENTRAL AND WEST MINNESOTA  *****

CITY           SKY/WX    TMP DP  RH WIND       PRES   REMARKS
FOSSTON        FAIR      34  23  64 CALM      30.33S
BEMIDJI        FAIR      35  21  57 CALM      30.32R
PARK RAPIDS    FAIR      41  23  48 N9        30.30R
ELBOW LAKE     FAIR      39  30  70 N7        30.32R
WADENA         FAIR      41  27  56 N9        30.30R
DETROIT LAKES  FAIR      39  28  65 N9        30.33R
MOORHEAD       FAIR      39  30  70 N8        30.35S
FERGUS FALLS   FAIR      39  28  65 N7        30.31R
MORRIS MN      FAIR      43  34  70 NW9       30.30R
STAPLES        FAIR      43  21  42 N12       30.30R
$$
  *****  WEATHER ELSEWHERE ACROSS MINNESOTA  *****

CITY           SKY/WX    TMP DP  RH WIND       PRES   REMARKS
DULUTH         FAIR      38  24  57 N9        30.25R
INTRNTL FALLS  FAIR      29  22  75 CALM      30.30R
ELY            FAIR      34  19  55 NW3       30.27R
CLOQUET        FAIR      41  21  45 N9G17     30.25R
WHEATON        FAIR      41  32  70 NW7       30.35R
BRAINERD       FAIR      42  25  50 N10       30.28R
HIBBING        FAIR      34  21  59 N7        30.28R
ALEXANDRIA     FAIR      45  27  49 NW8       30.29R
SAINT CLOUD    FAIR      43  30  60 N8        30.24R
MINNEAPOLIS    FAIR      50  28  42 N7        30.22R
$$

  *****  WEATHER ACROSS SOUTH DAKOTA  *****

CITY           SKY/WX    TMP DP  RH WIND       PRES   REMARKS
SIOUX FALLS    CLOUDY    46  36  68 N13       30.29R
BROOKINGS      FAIR      39  33  79 N6        30.31R
WATERTOWN      FAIR      34  30  85 N8        30.31R
HURON          FAIR      43  32  65 N7        30.34R
SISSETON         N/A     39  33  79 NW8       30.33R
ABERDEEN       FAIR      42  30  62 N6        30.35S
MITCHELL       CLOUDY    44  40  85 NW12      30.34R
PIERRE         FAIR      35  29  78 N8        30.36R
MOBRIDGE       FAIR      45  30  55 E7        30.34R
RAPID CITY     FAIR      34  24  67 N6        30.40S
$$

  *****  SOME WEATHER IN NEARBY STATES *****

CITY           SKY/WX    TMP DP  RH WIND       PRES   REMARKS
GLASGOW MT     FAIR      54  29  38 S10       30.24S
GREAT FALLS MT FAIR      52  18  26 S17       30.18F
CHEYENNE WY    MOCLDY    33  26  75 N8        30.41R
SCOTTSBLUFF NE FAIR      36  30  79 CALM      30.43R
OMAHA NE       LGT RAIN  52  47  83 N14       30.19S
DES MOINES IA  CLOUDY    58  42  55 N15G22    30.14R
DAVENPORT IA   CLOUDY    57  33  40 NW7       30.03R
CHICAGO IL     FAIR      51  45  79 NE13      30.02R
EAU CLAIRE WI  FAIR      44  35  70 NE5       30.19R
LA CROSSE WI   FAIR      54  35  48 N16G30    30.16R
$$

  *****  SOME NATIONAL WEATHER *****

CITY           SKY/WX    TMP DP  RH WIND       PRES   REMARKS
LA GUARDIA NY  LGT RAIN  57  47  69 E10       30.18F
RALEIGH NC     CLOUDY    63  63 100 SE7       29.83F
ATLANTA GA     FAIR      60  55  83 W8        29.91R
NEW ORLEANS LA FAIR      71  61  70 N3        30.03R
OKLAHOMA CITY  CLOUDY    65  47  52 N17G23    30.12R
ALBUQUERQUE NM MOCLDY    63  37  38 E26G40    30.07R
SALT LAKE CITY FAIR      54  42  64 W7        30.24R
LOS ANGELES CA FAIR      57  51  80 W7        30.00S
BOISE ID       FAIR      61  33  35 SE6       30.19R
SEATTLE WA     MOCLDY    66  41  40 N10       30.03F
$$

*** WEATHER ACROSS MANITOBA...SASKATCHEWAN AND ONTARIO ***
                ***ONTARIO***

CITY           SKY/WX    TMP DP  RH WIND       PRES   REMARKS
GERALDTON      CLOUDY    32  21  64 N8        30.23R WCI  25
THUNDER BAY    MOCLDY    39  25  56 N7        30.26R
SIOUX LOOKOUT  CLEAR     27  21  80 VRB2      30.27S
TORONTO        LGT RAIN  50  48  93 E3        30.05F FOG
BIG TROUT LK   CLEAR     30  16  55 S8        30.18F WCI  23
PICKLE LAKE    NOT AVBL
DRYDEN         CLEAR     36  21  55 CALM      30.28S
KENORA         CLEAR     39  19  45 SE3       30.28F
$$
                *** MANITOBA***

CITY           SKY/WX    TMP DP  RH WIND       PRES   REMARKS
BRANDON        PTCLDY    48  30  49 SW10      30.21F
DAUPHIN        CLEAR     52  28  40 SW10      30.13F
ISLAND LAKE    CLOUDY    39  23  52 S7        30.10F
PILOT MOUND      N/A     39  25  56 S9          N/A
THE PAS        MOCLDY    52  30  43 S10       29.92F
THOMPSON       CLOUDY    39  25  56 S9G20     29.86F
WINNIPEG       CLEAR     41  23  48 S10       30.28S
LYNN LAKE      MOCLDY    48  30  49 W8        29.72S
CHURCHILL      LGT RAIN  36  28  75 SW16G23   29.82F
GILLAM         CLOUDY    41  25  52 S16       29.91F
$$
                ***SASKATCHEWAN***

CITY           SKY/WX    TMP DP  RH WIND       PRES   REMARKS
ESTEVAN        CLOUDY    50  28  43 S10       30.22F
KINDERSLEY     CLOUDY    54  25  32 SW7       29.98F
LLOYDMINSTER   MOCLDY    52  28  40 NW6       29.94F
PRINCE ALBERT  MOCLDY    55  32  41 SW14      29.94F
REGINA         MOCLDY    46  27  46 S10       30.14F
YORKTON        CLEAR     52  28  40 S8        30.10F
N. BATTLEFORD  PTCLDY    55  28  35 VRB2      29.97F
LA RONGE       CLOUDY    57  27  30 SW7       29.82F
SASKATOON      MOCLDY    55  27  33 S12       30.00F
SWIFT CURRENT  MOCLDY    50  27  40 S13       30.10F
$$
NOTE: THESE ARE AUTOMATED STATIONS WITH LIMITED QUALITY CONTROL
      "FAIR" INDICATES FEW OR NO CLOUDS BELOW 12,000 FEET WITH NO
      SIGNIFICANT WEATHER AND/OR OBSTRUCTIONS TO VISIBILITY.
      SKY/WX - SKY CONDITION AND SIGNIFICANT WEATHER.
      TMP - AIR TEMPERATURE.    DP   - DEWPOINT TEMPERATURE.
      RH  - RELATIVE HUMIDITY.  PRES - PRESSURE.
      HX  - HEAT INDEX.         WCI  - WIND CHILL INDEX.
$



USA.gov is the U.S. government's official web portal to all federal, state and local government web resources and services.